Tracking 19792 objects as of 16-Jul-2019
HD Live streaming from Space Station
objects crossing your sky now

FENGYUN 1C DEB

Track FENGYUN 1C DEB now!
10-day predictions


NORAD ID: 33668
Int'l Code: 1999-025DFD
Perigee: 530.1 km
Apogee: 786.0 km
Inclination: 99.0 °
Period: 97.7 minutes
Semi major axis: 7029 km
RCS: 0.0083 m2 (small)
Launch date: May 10, 1999
Source: People's Republic of China (PRC)
Launch site: Taiyaun Space Center, China (TSC)

Note: This is SATELLITE DEBRIS
aabbcc
Your satellite tracking list
Your tracking list is empty




NASA's NSSDC Master Catalog

Two Line Element Set (TLE):
1 33668U 99025DFD 19196.26987398 +.00000354 +00000-0 +51266-4 0  9995
2 33668 099.0003 301.6441 0182046 040.7163 320.7487 14.73189477612898
Source of the keplerian elements: AFSPC